Location: Bieujac
(44.5398°N, 0.1549°W)
Time: 11:00:45
(UTC+00:00)

Cosmos 2100 Rocket - Pass Details

Date: 17 November 2019
Orbit: 956 x 1001 km, 82.9° (Epoch: 12 December)

Event Time Altitude Azimuth Distance (km) Brightness Sun altitude
Rises 04:38:45 0° 177° (S) 3,652 7.1 -24.9°
Reaches altitude 10° 04:41:16 10° 174° (S) 2,703 6.4 -24.4°
Maximum altitude 04:47:23 66° 94° (E) 1,046 4.3 -23.4°
Drops below altitude 10° 04:53:29 10° 13° (NNE) 2,699 6.4 -22.3°
Sets 04:56:00 0° 11° (N) 3,647 7.1 -21.8°
